EW5975 Weather Reports


Display with metric or nautical units.
time (UTC)temp
F
wind
direction
speed
MPH
gust
MPH
rain 1hr
in
rain 24hr
in
rain mn
in
humidity
%
barometer
mb
20260901105017 87 135 2.0 7.0 0.00 0.00 0.00 45 1017.7
20260901104037 87 135 1.0 4.0 0.00 0.00 0.00 43 1017.8
20260901103017 87 158 2.0 6.0 0.00 0.00 0.00 44 1017.8
20260901102018 86 158 1.0 5.0 0.00 0.00 0.00 42 1017.8
20260901101037 85 135 1.0 7.0 0.00 0.00 0.00 41 1017.8
20260901100017 85 248 2.0 5.0 0.00 0.00 0.00 42 1017.9
20260901095017 84 225 1.0 3.0 0.00 0.00 0.00 44 1017.8
20260901094017 84 135 2.0 5.0 0.00 0.00 0.00 45 1017.9
20260901093037 83 113 2.0 5.0 0.00 0.00 0.00 45 1017.9
20260901092017 83 135 1.0 4.0 0.00 0.00 0.00 50 1017.9
20260901091017 82 158 1.0 3.0 0.00 0.00 0.00 50 1017.8
20260901090017 82 225 1.0 4.0 0.00 0.00 0.00 51 1017.8
20260901085017 82 135 1.0 3.0 0.00 0.00 0.00 53 1017.7
20260901084016 81 225 1.0 2.0 0.00 0.00 0.00 53 1017.5
20260901083037 80 158 1.0 3.0 0.00 0.00 0.00 53 1017.5
20260901082016 79 0.0 2.0 0.00 0.00 0.00 53 1017.6
20260901081017 78 0.0 2.0 0.00 0.00 0.00 54 1017.4
20260901080015 78 248 1.0 2.0 0.00 0.00 0.00 52 1017.2
20260901075016 77 158 1.0 2.0 0.00 0.00 0.00 49 1017.2
20260901074037 77 158 1.0 2.0 0.00 0.00 0.00 50 1017.0
20260901073057 75 135 1.0 3.0 0.00 0.00 0.00 52 1017.1
20260901072038 73 0.0 0.0 0.00 0.00 0.00 55 1017.1
20260901071016 72 0.0 0.0 0.00 0.00 0.00 55 1017.1
20260901070016 72 0.0 1.0 0.00 0.00 0.00 56 1017.2
20260901065016 70 0.0 2.0 0.00 0.00 0.00 62 1016.9
20260901064016 69 0.0 1.0 0.00 0.00 0.00 61 1017.0
20260901063016 67 0.0 0.0 0.00 0.00 0.00 64 1016.9
20260901062016 66 0.0 1.0 0.00 0.00 0.00 63 1016.8
20260901061016 65 0.0 0.0 0.00 0.00 0.00 65 1016.7
20260901060016 65 0.0 0.0 0.00 0.00 0.00 61 1016.8
20260901055036 65 0.0 0.0 0.00 0.00 0.00 60 1016.6
20260901054039 65 0.0 0.0 0.00 0.00 0.00 59 1016.5
20260901053016 65 0.0 1.0 0.00 0.00 0.00 56 1016.5
20260901052058 64 0.0 0.0 0.00 0.00 0.00 51 1016.5
20260901051016 64 0.0 1.0 0.00 0.00 0.00 51 1016.4
20260901050036 64 0.0 1.0 0.00 0.00 0.00 50 1016.4
20260901045016 64 0.0 1.0 0.00 0.00 0.00 48 1016.3
20260901044016 64 0.0 1.0 0.00 0.00 0.00 45 1016.3
20260901043016 65 0.0 1.0 0.00 0.00 0.00 46 1016.2
20260901042016 65 0.0 0.0 0.00 0.00 0.00 46 1016.1
20260901041036 65 0.0 0.0 0.00 0.00 0.00 45 1016.0
20260901040016 65 0.0 3.0 0.00 0.00 0.00 46 1016.0
20260901035016 65 0.0 0.0 0.00 0.00 0.00 45 1015.8
20260901034016 65 0.0 1.0 0.00 0.00 0.00 46 1015.9
20260901033015 65 0.0 2.0 0.00 0.00 0.00 47 1015.9
20260901032015 65 0.0 1.0 0.00 0.00 0.00 47 1016.1
20260901031016 65 0.0 1.0 0.00 0.00 0.00 49 1016.1
20260901030036 65 0.0 0.0 0.00 0.00 0.00 52 1016.3
20260901025016 65 0.0 0.0 0.00 0.00 0.00 55 1016.3
20260901024017 65 0.0 0.0 0.00 0.00 0.00 52 1016.2
20260901023016 65 0.0 0.0 0.00 0.00 0.00 53 1016.3
20260901022015 66 0.0 0.0 0.00 0.00 0.00 58 1016.3
20260901021016 66 0.0 0.0 0.00 0.00 0.00 62 1016.3
20260901020015 66 0.0 0.0 0.00 0.00 0.00 62 1016.3
20260901015015 66 0.0 0.0 0.00 0.00 0.00 60 1016.2
20260901014017 66 0.0 0.0 0.00 0.00 0.00 56 1016.2
20260901013017 66 0.0 0.0 0.00 0.00 0.00 54 1016.1
20260901012018 66 0.0 0.0 0.00 0.00 0.00 53 1016.0
20260901011017 66 0.0 1.0 0.00 0.00 0.00 53 1015.9
20260901010037 66 0.0 0.0 0.00 0.00 0.00 55 1015.9
20260901005017 66 0.0 1.0 0.00 0.00 0.00 53 1015.9
20260901004017 66 0.0 1.0 0.00 0.00 0.00 53 1015.9
20260901003039 66 0.0 0.0 0.00 0.00 0.00 55 1015.9
20260901002017 66 0.0 0.0 0.00 0.00 0.00 55 1015.9
20260901001018 66 0.0 0.0 0.00 0.00 0.00 56 1015.9
20260901000017 66 0.0 0.0 0.00 0.00 0.00 57 1015.8
20260831235017 66 0.0 0.0 0.00 0.00 0.00 60 1016.0
20260831234017 66 0.0 0.0 0.00 0.00 0.00 62 1016.1
20260831233037 67 0.0 0.0 0.00 0.00 0.00 62 1016.2
20260831232017 67 0.0 0.0 0.00 0.00 0.00 63 1016.2
20260831231017 67 0.0 2.0 0.00 0.00 0.00 65 1016.1
20260831230056 67 0.0 0.0 0.00 0.00 0.00 69 1016.1
20260831225017 67 0.0 0.0 0.00 0.00 0.00 69 1016.2
20260831224017 67 0.0 0.0 0.00 0.00 0.00 70 1016.2
20260831223021 67 0.0 0.0 0.00 0.00 0.00 72 1016.2
20260831222038 67 0.0 0.0 0.00 0.00 0.00 73 1016.1
20260831221017 67 0.0 0.0 0.00 0.00 0.00 72 1016.2
20260831220018 67 0.0 0.0 0.00 0.00 0.00 70 1015.9
20260831215017 68 0.0 0.0 0.00 0.00 0.00 71 1016.0
20260831214017 68 0.0 0.0 0.00 0.00 0.00 70 1015.9
20260831213017 69 0.0 0.0 0.00 0.00 0.00 71 1015.6
20260831212037 69 0.0 0.0 0.00 0.00 0.00 72 1015.5
20260831211017 70 0.0 0.0 0.00 0.00 0.00 75 1015.3
20260831210017 70 0.0 0.0 0.00 0.00 0.00 76 1015.4
20260831205017 70 0.0 0.0 0.00 0.00 0.00 74 1015.4
20260831204037 70 0.0 1.0 0.00 0.00 0.00 70 1015.2
20260831203016 70 0.0 1.0 0.00 0.00 0.00 72 1014.9
20260831202016 71 0.0 0.0 0.00 0.00 0.00 74 1015.1
20260831201017 71 0.0 0.0 0.00 0.00 0.00 74 1015.1
20260831200037 71 0.0 1.0 0.00 0.00 0.00 74 1014.9
20260831195018 72 0.0 0.0 0.00 0.00 0.00 74 1014.9
20260831194016 72 0.0 0.0 0.00 0.00 0.00 73 1014.8
20260831193017 73 0.0 0.0 0.00 0.00 0.00 73 1014.5
20260831192016 73 0.0 0.0 0.00 0.00 0.00 71 1014.5
20260831191016 73 0.0 0.0 0.00 0.00 0.00 71 1014.4
20260831190037 74 0.0 0.0 0.00 0.00 0.00 70 1014.0
20260831185017 74 0.0 0.0 0.00 0.00 0.00 72 1014.0
20260831184016 75 0.0 1.0 0.00 0.00 0.00 74 1013.9
20260831183017 75 0.0 1.0 0.00 0.00 0.00 74
20260831182056 76 0.0 0.0 0.00 0.00 0.00 73
20260831181016 77 0.0 0.0 0.00 0.00 0.00 71
20260831180016 78 0.0 0.0 0.00 0.00 0.00 71
20260831175016 79 0.0 0.0 0.00 0.00 0.00 70
20260831174036 80 0.0 0.0 0.00 0.00 0.00 70
20260831173016 80 0.0 0.0 0.00 0.00 0.00 68
20260831172016 81 0.0 1.0 0.00 0.00 0.00 66
20260831171018 82 0.0 0.0 0.00 0.00 0.00 64
20260831170016 83 0.0 1.0 0.00 0.00 0.00 62
20260831165016 84 158 1.0 3.0 0.00 0.00 0.00 60
20260831164036 85 135 1.0 3.0 0.00 0.00 0.00 60
20260831163016 85 158 1.0 3.0 0.00 0.00 0.00 60
20260831162017 85 158 1.0 3.0 0.00 0.00 0.00 60
20260831161016 85 158 2.0 3.0 0.00 0.00 0.00 61
20260831160016 85 248 1.0 2.0 0.00 0.00 0.00 62
20260831155016 85 248 1.0 3.0 0.00 0.00 0.00 62
20260831154016 84 158 1.0 3.0 0.00 0.00 0.00 63
20260831153016 84 203 1.0 2.0 0.00 0.00 0.00 63
20260831152016 84 135 1.0 2.0 0.00 0.00 0.00 63
20260831151016 85 0.0 1.0 0.00 0.00 0.00 62
20260831150015 85 135 1.0 4.0 0.00 0.00 0.00 62
20260831145015 86 135 1.0 3.0 0.00 0.00 0.00 61
20260831144016 86 135 2.0 4.0 0.00 0.00 0.00 61
20260831143036 87 0.0 3.0 0.00 0.00 0.00 60
20260831142016 88 135 1.0 4.0 0.00 0.00 0.00 59
20260831141016 88 158 2.0 5.0 0.00 0.00 0.00 58
20260831140015 89 135 2.0 5.0 0.00 0.00 0.00 58
20260831135015 88 135 1.0 4.0 0.00 0.00 0.00 59
20260831134016 88 180 2.0 5.0 0.00 0.00 0.00 59
20260831133016 88 248 1.0 3.0 0.00 0.00 0.00 58
20260831132016 88 135 1.0 6.0 0.00 0.00 0.00 59
20260831131015 89 135 2.0 5.0 0.00 0.00 0.00 58
20260831130017 89 225 1.0 3.0 0.00 0.00 0.00 57
20260831125015 89 113 2.0 4.0 0.00 0.00 0.00 57
20260831124017 90 135 2.0 4.0 0.00 0.00 0.00 57
20260831123015 89 158 2.0 5.0 0.00 0.00 0.00 57
20260831122017 89 135 2.0 7.0 0.00 0.00 0.00 57
20260831121039 89 135 2.0 6.0 0.00 0.00 0.00 57
20260831120017 88 135 3.0 8.0 0.00 0.00 0.00 57
20260831115017 88 135 2.0 6.0 0.00 0.00 0.00 56
20260831114017 88 135 1.0 5.0 0.00 0.00 0.00 58
20260831113017 88 135 2.0 7.0 0.00 0.00 0.00 55
20260831112017 88 135 3.0 6.0 0.00 0.00 0.00 55
20260831111037 89 158 2.0 6.0 0.00 0.00 0.00 53
20260831110039 89 158 3.0 8.0 0.00 0.00 0.00 53